Time,TemperatureF,DewpointF,PressureIn,WindDirection,WindDirectionDegrees,WindSpeedMPH,WindSpeedGustMPH,Humidity,HourlyPrecipIn,Conditions,Clouds,dailyrainin,SolarRadiationWatts/m^2,SoftwareType,DateUTC
2013-06-11 00:03:00,63.0,63.0,-100.00,WSW,253,6.0,14.0,100,0.00,,,0.80,0.000000,,2013-06-11 04:03:00,
2013-06-11 00:34:00,62.0,62.0,-100.00,WSW,257,7.0,15.0,100,0.00,,,0.80,0.000000,,2013-06-11 04:34:00,
2013-06-11 00:43:00,62.0,62.0,-100.00,WSW,257,7.0,15.0,100,0.00,,,0.80,0.000000,,2013-06-11 04:43:00,
2013-06-11 00:53:00,62.0,62.0,-100.00,WSW,257,7.0,15.0,100,0.00,,,0.80,0.000000,,2013-06-11 04:53:00,
2013-06-11 01:02:00,62.0,62.0,-100.00,WSW,257,7.0,15.0,100,0.00,,,0.80,0.000000,,2013-06-11 05:02:00,
2013-06-11 01:32:00,62.0,62.0,-100.00,West,263,8.0,18.0,100,0.00,,,0.80,0.000000,,2013-06-11 05:32:00,
2013-06-11 01:42:00,62.0,62.0,-100.00,West,263,8.0,18.0,100,0.00,,,0.80,0.000000,,2013-06-11 05:42:00,
2013-06-11 01:52:00,62.0,62.0,-100.00,West,263,8.0,18.0,100,0.00,,,0.80,0.000000,,2013-06-11 05:52:00,
2013-06-11 02:02:00,62.0,62.0,-100.00,West,263,8.0,18.0,100,0.00,,,0.80,0.000000,,2013-06-11 06:02:00,
2013-06-11 02:32:00,62.0,62.0,-100.00,WSW,254,8.0,19.0,100,0.00,,,0.80,0.000000,,2013-06-11 06:32:00,
2013-06-11 02:42:00,62.0,62.0,-100.00,WSW,254,8.0,19.0,100,0.00,,,0.80,0.000000,,2013-06-11 06:42:00,
2013-06-11 02:52:00,62.0,62.0,-100.00,WSW,254,8.0,19.0,100,0.00,,,0.80,0.000000,,2013-06-11 06:52:00,
2013-06-11 03:02:00,62.0,62.0,-100.00,WSW,254,8.0,19.0,100,0.00,,,0.80,0.000000,,2013-06-11 07:02:00,
2013-06-11 03:32:00,61.0,61.0,-100.00,WSW,257,7.0,15.0,100,0.00,,,0.80,0.000000,,2013-06-11 07:32:00,
2013-06-11 03:42:00,61.0,61.0,-100.00,WSW,257,7.0,15.0,100,0.00,,,0.80,0.000000,,2013-06-11 07:42:00,
2013-06-11 03:52:00,61.0,61.0,-100.00,WSW,257,7.0,15.0,100,0.00,,,0.80,0.000000,,2013-06-11 07:52:00,
2013-06-11 04:02:00,61.0,61.0,-100.00,WSW,257,7.0,15.0,100,0.00,,,0.80,0.000000,,2013-06-11 08:02:00,
2013-06-11 04:32:00,60.0,60.0,-100.00,WSW,253,8.0,18.0,100,0.00,,,0.80,0.000000,,2013-06-11 08:32:00,
2013-06-11 04:42:00,60.0,60.0,-100.00,WSW,253,8.0,18.0,100,0.00,,,0.80,0.000000,,2013-06-11 08:42:00,
2013-06-11 04:52:00,60.0,60.0,-100.00,WSW,253,8.0,18.0,100,0.00,,,0.80,0.000000,,2013-06-11 08:52:00,
2013-06-11 05:02:00,60.0,60.0,-100.00,WSW,253,8.0,18.0,100,0.00,,,0.80,0.000000,,2013-06-11 09:02:00,
2013-06-11 05:33:00,60.0,60.0,-100.00,WSW,258,9.0,17.0,100,0.00,,,0.75,0.000000,,2013-06-11 09:33:00,
2013-06-11 05:43:00,60.0,60.0,-100.00,WSW,258,9.0,17.0,100,0.00,,,0.75,0.000000,,2013-06-11 09:43:00,
2013-06-11 05:53:00,60.0,60.0,-100.00,WSW,258,9.0,17.0,100,0.00,,,0.75,0.000000,,2013-06-11 09:53:00,
2013-06-11 06:03:00,60.0,60.0,-100.00,WSW,258,9.0,17.0,100,0.00,,,0.75,0.000000,,2013-06-11 10:03:00,
2013-06-11 06:33:00,60.0,60.0,-100.00,West,260,9.0,17.0,100,0.00,,,0.66,1.000000,,2013-06-11 10:33:00,
2013-06-11 06:43:00,60.0,60.0,-100.00,West,260,9.0,17.0,100,0.00,,,0.66,1.000000,,2013-06-11 10:43:00,
2013-06-11 06:52:00,60.0,60.0,-100.00,West,260,9.0,17.0,100,0.00,,,0.66,1.000000,,2013-06-11 10:52:00,
2013-06-11 07:02:00,60.0,60.0,-100.00,West,260,9.0,17.0,100,0.00,,,0.66,1.000000,,2013-06-11 11:02:00,
2013-06-11 07:32:00,60.0,60.0,-100.00,WSW,257,7.0,15.0,100,0.00,,,-99.99,10.000000,,2013-06-11 11:32:00,
2013-06-11 07:42:00,60.0,60.0,-100.00,WSW,257,7.0,15.0,100,0.00,,,-99.99,10.000000,,2013-06-11 11:42:00,
2013-06-11 07:52:00,60.0,60.0,-100.00,WSW,257,7.0,15.0,100,0.00,,,-99.99,10.000000,,2013-06-11 11:52:00,
2013-06-11 08:02:00,60.0,60.0,-100.00,WSW,257,7.0,15.0,100,0.00,,,-99.99,10.000000,,2013-06-11 12:02:00,
2013-06-11 08:32:00,60.0,60.0,-100.00,West,259,7.0,18.0,100,0.04,,,-99.99,24.000000,,2013-06-11 12:32:00,
2013-06-11 08:42:00,60.0,60.0,-100.00,West,259,7.0,18.0,100,0.04,,,-99.99,24.000000,,2013-06-11 12:42:00,
2013-06-11 08:52:00,60.0,60.0,-100.00,West,259,7.0,18.0,100,0.04,,,-99.99,24.000000,,2013-06-11 12:52:00,
2013-06-11 09:02:00,60.0,60.0,-100.00,West,259,7.0,18.0,100,0.04,,,-99.99,24.000000,,2013-06-11 13:02:00,
2013-06-11 09:32:00,61.0,61.0,-100.00,West,264,8.0,17.0,100,0.04,,,-99.99,67.000000,,2013-06-11 13:32:00,
2013-06-11 09:42:00,61.0,61.0,-100.00,West,264,8.0,17.0,100,0.04,,,-99.99,67.000000,,2013-06-11 13:42:00,
2013-06-11 09:52:00,61.0,61.0,-100.00,West,264,8.0,17.0,100,0.04,,,-99.99,67.000000,,2013-06-11 13:52:00,
2013-06-11 10:02:00,61.0,61.0,-100.00,West,264,8.0,17.0,100,0.04,,,-99.99,67.000000,,2013-06-11 14:02:00,
2013-06-11 10:32:00,62.0,62.0,-100.00,West,272,7.0,18.0,100,0.01,,,0.34,126.000000,,2013-06-11 14:32:00,
2013-06-11 10:42:00,62.0,62.0,-100.00,West,272,7.0,18.0,100,0.01,,,0.34,126.000000,,2013-06-11 14:42:00,
2013-06-11 10:53:00,62.0,62.0,-100.00,West,272,7.0,18.0,100,0.01,,,0.34,126.000000,,2013-06-11 14:53:00,
2013-06-11 11:02:00,62.0,62.0,-100.00,West,272,7.0,18.0,100,0.01,,,0.34,126.000000,,2013-06-11 15:02:00,
2013-06-11 11:33:00,63.0,63.0,-100.00,NW,304,7.0,15.0,100,0.11,,,0.42,153.000000,,2013-06-11 15:33:00,
2013-06-11 11:43:00,63.0,63.0,-100.00,NW,304,7.0,15.0,100,0.11,,,0.42,153.000000,,2013-06-11 15:43:00,
2013-06-11 11:53:00,63.0,63.0,-100.00,NW,304,7.0,15.0,100,0.11,,,0.42,153.000000,,2013-06-11 15:53:00,
2013-06-11 12:03:00,63.0,63.0,-100.00,NW,304,7.0,15.0,100,0.11,,,0.42,153.000000,,2013-06-11 16:03:00,
2013-06-11 12:33:00,64.0,63.0,-100.00,NW,314,7.0,15.0,96,0.00,,,0.42,265.000000,,2013-06-11 16:33:00,
2013-06-11 12:42:00,64.0,63.0,-100.00,NW,314,7.0,15.0,96,0.00,,,0.42,265.000000,,2013-06-11 16:42:00,
2013-06-11 12:53:00,64.0,63.0,-100.00,NW,314,7.0,15.0,96,0.00,,,0.42,265.000000,,2013-06-11 16:53:00,
2013-06-11 13:02:00,64.0,63.0,-100.00,NW,314,7.0,15.0,96,0.00,,,0.42,265.000000,,2013-06-11 17:02:00,
2013-06-11 13:32:00,66.0,62.0,-100.00,NW,313,6.0,19.0,88,0.00,,,0.35,297.000000,,2013-06-11 17:32:00,
2013-06-11 13:43:00,66.0,62.0,-100.00,NW,313,6.0,19.0,88,0.00,,,0.35,297.000000,,2013-06-11 17:43:00,
2013-06-11 13:53:00,66.0,62.0,-100.00,NW,313,6.0,19.0,88,0.00,,,0.35,297.000000,,2013-06-11 17:53:00,
2013-06-11 14:02:00,66.0,62.0,-100.00,NW,313,6.0,19.0,88,0.00,,,0.35,297.000000,,2013-06-11 18:02:00,
2013-06-11 14:33:00,65.0,61.0,-100.00,WNW,297,6.0,17.0,87,0.00,,,0.35,257.000000,,2013-06-11 18:33:00,
2013-06-11 14:43:00,65.0,61.0,-100.00,WNW,297,6.0,17.0,87,0.00,,,0.35,257.000000,,2013-06-11 18:43:00,
2013-06-11 14:52:00,65.0,61.0,-100.00,WNW,297,6.0,17.0,87,0.00,,,0.35,257.000000,,2013-06-11 18:52:00,
2013-06-11 15:02:00,65.0,61.0,-100.00,WNW,297,6.0,17.0,87,0.00,,,0.35,257.000000,,2013-06-11 19:02:00,
2013-06-11 15:33:00,65.0,62.0,-100.00,West,281,6.0,15.0,89,0.00,,,0.32,222.000000,,2013-06-11 19:33:00,
2013-06-11 15:42:00,65.0,62.0,-100.00,West,281,6.0,15.0,89,0.00,,,0.32,222.000000,,2013-06-11 19:42:00,
2013-06-11 15:53:00,65.0,62.0,-100.00,West,281,6.0,15.0,89,0.00,,,0.32,222.000000,,2013-06-11 19:53:00,
2013-06-11 16:03:00,65.0,62.0,-100.00,West,281,6.0,15.0,89,0.00,,,0.32,222.000000,,2013-06-11 20:03:00,
2013-06-11 16:32:00,65.0,60.0,-100.00,WNW,301,8.0,17.0,84,0.00,,,0.32,246.000000,,2013-06-11 20:32:00,
2013-06-11 16:42:00,65.0,60.0,-100.00,WNW,301,8.0,17.0,84,0.00,,,0.32,246.000000,,2013-06-11 20:42:00,
2013-06-11 16:52:00,65.0,60.0,-100.00,WNW,301,8.0,17.0,84,0.00,,,0.32,246.000000,,2013-06-11 20:52:00,
2013-06-11 17:02:00,65.0,60.0,-100.00,WNW,301,8.0,17.0,84,0.00,,,0.32,246.000000,,2013-06-11 21:02:00,
2013-06-11 17:33:00,64.0,59.0,-100.00,WNW,296,6.0,20.0,83,0.00,,,0.20,205.000000,,2013-06-11 21:33:00,
2013-06-11 17:42:00,64.0,59.0,-100.00,WNW,296,6.0,20.0,83,0.00,,,0.20,205.000000,,2013-06-11 21:42:00,
2013-06-11 17:53:00,64.0,59.0,-100.00,WNW,296,6.0,20.0,83,0.00,,,0.20,205.000000,,2013-06-11 21:53:00,
2013-06-11 18:03:00,64.0,59.0,-100.00,WNW,296,6.0,20.0,83,0.00,,,0.20,205.000000,,2013-06-11 22:03:00,
2013-06-11 18:33:00,65.0,60.0,-100.00,NW,320,8.0,19.0,83,0.00,,,0.20,250.000000,,2013-06-11 22:33:00,
2013-06-11 18:42:00,65.0,60.0,-100.00,NW,320,8.0,19.0,83,0.00,,,0.20,250.000000,,2013-06-11 22:42:00,
2013-06-11 18:52:00,65.0,60.0,-100.00,NW,320,8.0,19.0,83,0.00,,,0.20,250.000000,,2013-06-11 22:52:00,
2013-06-11 19:02:00,65.0,60.0,-100.00,NW,320,8.0,19.0,83,0.00,,,0.20,250.000000,,2013-06-11 23:02:00,
2013-06-11 19:32:00,64.0,59.0,-100.00,NNW,339,7.0,19.0,84,0.00,,,0.20,146.000000,,2013-06-11 23:32:00,
2013-06-11 19:42:00,64.0,59.0,-100.00,NNW,339,7.0,19.0,84,0.00,,,0.20,146.000000,,2013-06-11 23:42:00,
2013-06-11 19:52:00,64.0,59.0,-100.00,NNW,339,7.0,19.0,84,0.00,,,0.20,146.000000,,2013-06-11 23:52:00,
2013-06-11 20:02:00,64.0,59.0,-100.00,NNW,339,7.0,19.0,84,0.00,,,0.20,146.000000,,2013-06-12 00:02:00,
2013-06-11 20:32:00,63.0,59.0,-100.00,NNW,330,6.0,14.0,88,0.00,,,0.20,42.000000,,2013-06-12 00:32:00,
2013-06-11 20:42:00,63.0,59.0,-100.00,NNW,330,6.0,14.0,88,0.00,,,0.20,42.000000,,2013-06-12 00:42:00,
2013-06-11 20:52:00,63.0,59.0,-100.00,NNW,330,6.0,14.0,88,0.00,,,0.20,42.000000,,2013-06-12 00:52:00,
2013-06-11 21:02:00,63.0,59.0,-100.00,NNW,330,6.0,14.0,88,0.00,,,0.20,42.000000,,2013-06-12 01:02:00,
2013-06-11 21:32:00,61.0,59.0,-100.00,NW,313,5.0,15.0,93,0.00,,,0.20,8.000000,,2013-06-12 01:32:00,
2013-06-11 21:42:00,61.0,59.0,-100.00,NW,313,5.0,15.0,93,0.00,,,0.20,8.000000,,2013-06-12 01:42:00,
2013-06-11 21:52:00,61.0,59.0,-100.00,NW,313,5.0,15.0,93,0.00,,,0.20,8.000000,,2013-06-12 01:52:00,
2013-06-11 22:02:00,61.0,59.0,-100.00,NW,313,5.0,15.0,93,0.00,,,0.20,8.000000,,2013-06-12 02:02:00,
2013-06-11 22:32:00,61.0,60.0,-100.00,NW,306,4.0,12.0,96,0.00,,,0.20,0.000000,,2013-06-12 02:32:00,
2013-06-11 22:42:00,61.0,60.0,-100.00,NW,306,4.0,12.0,96,0.00,,,0.20,0.000000,,2013-06-12 02:42:00,
2013-06-11 22:52:00,61.0,60.0,-100.00,NW,306,4.0,12.0,96,0.00,,,0.20,0.000000,,2013-06-12 02:52:00,
2013-06-11 23:02:00,61.0,60.0,-100.00,NW,306,4.0,12.0,96,0.00,,,0.20,0.000000,,2013-06-12 03:02:00,
2013-06-11 23:33:00,60.0,60.0,-100.00,WNW,303,4.0,9.0,100,0.00,,,0.20,0.000000,,2013-06-12 03:33:00,
2013-06-11 23:43:00,60.0,60.0,-100.00,WNW,303,4.0,9.0,100,0.00,,,0.20,0.000000,,2013-06-12 03:43:00,
2013-06-11 23:53:00,60.0,60.0,-100.00,WNW,303,4.0,9.0,100,0.00,,,0.20,0.000000,,2013-06-12 03:53:00,